{"data":{"norad_id":64744,"intl_designator":"2025-144W","name":"STARLINK-34185","alt_names":[],"object_type":"PAYLOAD","status":"ACTIVE","operator":null,"country":"US","launch_date":"2025-07-02","launch_site_code":"AFETR","launch_vehicle":null,"mission":null,"orbit_class":"UNKNOWN","rcs_meters":null,"size_class":null,"mass_kg":null,"dimensions":null,"purposes":["comms"],"wikipedia_slug":null,"has_3d_model":false,"image_url":null,"decayed_at":null,"tle_current":{"epoch":"2026-09-20T12:45:52.756704Z","epoch_age_seconds":125215,"freshness":"FRESH","line1":"1 64744U 25144W   26263.53186061  .00027359  00000+0  81746-3 0  9994","line2":"2 64744  53.1607 353.8503 0001098  71.5956 288.5166 15.34417194 69579","mean_motion":15.34417194,"eccentricity":0.0001098,"inclination_deg":53.1607,"raan_deg":353.8503,"arg_perigee_deg":71.5956,"mean_anomaly_deg":288.5166,"bstar":0.00081746,"rev_number":6957,"period_min":93.846706464891,"perigee_km":461.90101784566,"apogee_km":463.40325514003,"semimajor_km":6840.7891364928,"source":"CELESTRAK","updated_at":"2026-09-21T09:00:35.413136Z"}}}